When you browse on this site, cookies collect data to enhance your experience and personalize the content and advertising you see.
Visit our Privacy Policy to learn more. By continuing to use the site, you agree to this use of cookies and data.
  • In Czech Republic
  • List of Countries
  • For 7 days
  • Water Temperature
  • Weather Map
  • Weather Widgets
  • user-avatar
    Login

    Hourly Weather Ganja

    Today, 6 April, Monday

    Time Temperature Precipitation Wind Pressure Humidity
    00:00 +13°C° 0 mm 1 mps 726 mmHg 72%
    01:00 +13°C° 0 mm 1 mps 726 mmHg 73%
    02:00 +12°C° 0 mm 1 mps 726 mmHg 74%
    03:00 +12°C° 0 mm 1 mps 725 mmHg 75%
    04:00 +12°C° 0 mm 1 mps 725 mmHg 76%
    05:00 +12°C° 0 mm 1 mps 725 mmHg 77%
    06:00 +11°C° 0 mm 0 mps 725 mmHg 78%
    07:00 +13°C° 0 mm 1 mps 725 mmHg 76%
    08:00 +13°C° 0 mm 1 mps 725 mmHg 74%
    09:00 +15°C° 0 mm 1 mps 725 mmHg 70%
    10:00 +15°C° 0 mm 1 mps 726 mmHg 68%
    11:00 +16°C° 0 mm 2 mps 726 mmHg 66%
    12:00 +17°C° 0 mm 2 mps 726 mmHg 63%
    13:00 +17°C° 0.1 mm 2 mps 726 mmHg 63%
    14:00 +18°C° 0.1 mm 2 mps 726 mmHg 62%
    15:00 +17°C° 0 mm 2 mps 726 mmHg 63%
    16:00 +17°C° 0.5 mm 2 mps 726 mmHg 68%
    17:00 +16°C° 0.5 mm 2 mps 726 mmHg 74%
    18:00 +15°C° 0.5 mm 2 mps 727 mmHg 80%
    19:00 +13°C° 0.6 mm 3 mps 727 mmHg 83%
    20:00 +12°C° 0.6 mm 4 mps 728 mmHg 85%
    21:00 +10°C° 0.6 mm 5 mps 728 mmHg 88%
    22:00 +9°C° 1.3 mm 5 mps 729 mmHg 88%
    23:00 +8°C° 1.3 mm 6 mps 729 mmHg 88%

    Tomorrow, 7 April, Tuesday

    Time Temperature Precipitation Wind Pressure Humidity
    00:00 +7°C° 1.3 mm 6 mps 729 mmHg 87%
    01:00 +7°C° 0.5 mm 6 mps 730 mmHg 87%
    02:00 +7°C° 0.5 mm 6 mps 730 mmHg 86%
    03:00 +6°C° 0.5 mm 7 mps 730 mmHg 86%
    04:00 +5°C° 0.4 mm 7 mps 731 mmHg 85%
    05:00 +5°C° 0.4 mm 7 mps 731 mmHg 83%
    06:00 +4°C° 0.4 mm 7 mps 732 mmHg 82%
    07:00 +4°C° 0.2 mm 7 mps 732 mmHg 80%
    08:00 +4°C° 0.2 mm 7 mps 732 mmHg 78%
    09:00 +4°C° 0.2 mm 7 mps 732 mmHg 76%
    10:00 +4°C° 0.2 mm 7 mps 732 mmHg 76%
    11:00 +4°C° 0.2 mm 7 mps 732 mmHg 75%
    12:00 +4°C° 0.2 mm 7 mps 732 mmHg 75%
    13:00 +4°C° 0.2 mm 6 mps 732 mmHg 76%
    14:00 +4°C° 0.2 mm 6 mps 732 mmHg 77%
    15:00 +4°C° 0.2 mm 6 mps 732 mmHg 78%
    16:00 +3°C° 0.2 mm 5 mps 732 mmHg 81%
    17:00 +3°C° 0.2 mm 5 mps 732 mmHg 83%
    18:00 +3°C° 0.2 mm 4 mps 733 mmHg 86%
    19:00 +3°C° 0.4 mm 4 mps 733 mmHg 88%
    20:00 +3°C° 0.4 mm 4 mps 734 mmHg 91%
    21:00 +1°C° 0.4 mm 4 mps 735 mmHg 93%
    22:00 +1°C° 0.4 mm 4 mps 735 mmHg 93%
    23:00 +1°C° 0.4 mm 4 mps 735 mmHg 94%

    Day after tomorrow, 8 April, Wednesday

    Time Temperature Precipitation Wind Pressure Humidity
    00:00 +1°C° 0.4 mm 4 mps 736 mmHg 94%
    01:00 +1°C° 0.1 mm 4 mps 736 mmHg 93%
    02:00 0°C° 0.1 mm 4 mps 736 mmHg 92%
    03:00 0°C° 0.1 mm 4 mps 736 mmHg 91%
    04:00 0°C° 0.1 mm 4 mps 736 mmHg 90%
    05:00 0°C° 0.1 mm 4 mps 737 mmHg 88%
    06:00 0°C° 0.1 mm 4 mps 737 mmHg 87%
    07:00 0°C° 0.1 mm 4 mps 737 mmHg 84%
    08:00 +1°C° 0.1 mm 4 mps 737 mmHg 80%
    09:00 +3°C° 0.1 mm 4 mps 737 mmHg 77%
    10:00 +3°C° 0.1 mm 4 mps 737 mmHg 75%
    11:00 +4°C° 0.1 mm 4 mps 736 mmHg 72%
    12:00 +4°C° 0.1 mm 4 mps 736 mmHg 70%
    13:00 +5°C° 0.1 mm 4 mps 735 mmHg 69%
    14:00 +5°C° 0.1 mm 4 mps 735 mmHg 69%
    15:00 +5°C° 0.1 mm 4 mps 734 mmHg 68%
    16:00 +5°C° 0.1 mm 4 mps 734 mmHg 69%
    17:00 +5°C° 0.1 mm 4 mps 734 mmHg 71%
    18:00 +4°C° 0.1 mm 3 mps 734 mmHg 73%
    19:00 +4°C° 0 mm 3 mps 734 mmHg 75%
    20:00 +3°C° 0 mm 3 mps 734 mmHg 78%
    21:00 +4°C° 0 mm 2 mps 734 mmHg 80%
    22:00 +4°C° 0 mm 2 mps 733 mmHg 82%
    23:00 +3°C° 0 mm 2 mps 733 mmHg 83%

    9 April, Thursday

    Time Temperature Precipitation Wind Pressure Humidity
    00:00 +4°C° 0 mm 1 mps 733 mmHg 85%
    01:00 +4°C° 0 mm 1 mps 732 mmHg 85%
    02:00 +4°C° 0 mm 1 mps 731 mmHg 86%
    03:00 +3°C° 0 mm 0 mps 730 mmHg 87%
    04:00 +2°C° 0 mm 0 mps 730 mmHg 87%
    05:00 +2°C° 0 mm 0 mps 729 mmHg 87%
    06:00 +2°C° 0 mm 0 mps 729 mmHg 87%
    07:00 +4°C° 0 mm 1 mps 728 mmHg 82%
    08:00 +5°C° 0 mm 1 mps 728 mmHg 78%
    09:00 +5°C° 0 mm 2 mps 727 mmHg 74%
    10:00 +6°C° 0 mm 2 mps 727 mmHg 71%
    11:00 +6°C° 0 mm 2 mps 726 mmHg 68%
    12:00 +7°C° 0 mm 2 mps 726 mmHg 65%
    13:00 +8°C° 0 mm 2 mps 725 mmHg 63%
    14:00 +9°C° 0 mm 2 mps 725 mmHg 61%
    15:00 +9°C° 0 mm 2 mps 724 mmHg 59%
    16:00 +9°C° 0 mm 2 mps 724 mmHg 60%
    17:00 +9°C° 0 mm 2 mps 724 mmHg 61%
    18:00 +9°C° 0 mm 2 mps 724 mmHg 62%
    19:00 +8°C° 0 mm 2 mps 725 mmHg 64%
    20:00 +7°C° 0 mm 2 mps 725 mmHg 67%
    21:00 +7°C° 0 mm 2 mps 726 mmHg 69%
    22:00 +7°C° 0 mm 1 mps 726 mmHg 72%
    23:00 +7°C° 0 mm 1 mps 726 mmHg 74%

    10 April, Friday

    Time Temperature Precipitation Wind Pressure Humidity
    00:00 +7°C° 0 mm 1 mps 725 mmHg 77%
    01:00 +6°C° 0 mm 1 mps 725 mmHg 79%
    02:00 +6°C° 0 mm 1 mps 725 mmHg 81%
    03:00 +6°C° 0 mm 1 mps 724 mmHg 83%
    04:00 +6°C° 0 mm 1 mps 724 mmHg 81%
    05:00 +6°C° 0 mm 1 mps 724 mmHg 80%
    06:00 +6°C° 0 mm 1 mps 724 mmHg 79%
    07:00 +7°C° 0 mm 1 mps 724 mmHg 74%
    08:00 +8°C° 0 mm 1 mps 723 mmHg 69%
    09:00 +10°C° 0 mm 1 mps 723 mmHg 64%
    10:00 +10°C° 0 mm 2 mps 723 mmHg 61%
    11:00 +12°C° 0 mm 2 mps 723 mmHg 58%
    12:00 +13°C° 0 mm 2 mps 722 mmHg 55%
    13:00 +13°C° 0 mm 2 mps 722 mmHg 54%
    14:00 +13°C° 0 mm 3 mps 722 mmHg 52%
    15:00 +13°C° 0 mm 3 mps 722 mmHg 50%
    16:00 +13°C° 0 mm 3 mps 722 mmHg 54%
    17:00 +12°C° 0 mm 3 mps 721 mmHg 57%
    18:00 +12°C° 0 mm 2 mps 721 mmHg 60%
    19:00 +12°C° 0 mm 2 mps 722 mmHg 64%
    20:00 +11°C° 0 mm 1 mps 722 mmHg 67%
    21:00 +10°C° 0 mm 1 mps 723 mmHg 70%
    22:00 +10°C° 0 mm 1 mps 722 mmHg 72%
    23:00 +10°C° 0 mm 1 mps 722 mmHg 75%

    11 April, Saturday

    Time Temperature Precipitation Wind Pressure Humidity
    00:00 +9°C° 0 mm 1 mps 722 mmHg 78%
    01:00 +9°C° 0 mm 1 mps 722 mmHg 80%
    02:00 +9°C° 0 mm 1 mps 722 mmHg 82%
    03:00 +8°C° 0 mm 1 mps 721 mmHg 85%
    04:00 +8°C° 0 mm 1 mps 721 mmHg 85%
    05:00 +7°C° 0 mm 0 mps 721 mmHg 86%
    06:00 +7°C° 0 mm 0 mps 721 mmHg 87%
    07:00 +9°C° 0 mm 1 mps 721 mmHg 83%
    08:00 +10°C° 0 mm 1 mps 721 mmHg 79%
    09:00 +10°C° 0 mm 2 mps 721 mmHg 75%
    10:00 +12°C° 0.1 mm 1 mps 721 mmHg 72%
    11:00 +12°C° 0.1 mm 1 mps 720 mmHg 70%
    12:00 +13°C° 0.1 mm 1 mps 720 mmHg 68%
    13:00 +13°C° 0.1 mm 1 mps 720 mmHg 68%
    14:00 +13°C° 0.1 mm 2 mps 720 mmHg 68%
    15:00 +13°C° 0.1 mm 2 mps 720 mmHg 68%
    16:00 +13°C° 0 mm 2 mps 720 mmHg 70%
    17:00 +13°C° 0 mm 2 mps 720 mmHg 71%
    18:00 +12°C° 0 mm 2 mps 720 mmHg 73%
    19:00 +12°C° 0 mm 2 mps 721 mmHg 73%
    20:00 +11°C° 0 mm 3 mps 721 mmHg 74%
    21:00 +11°C° 0 mm 3 mps 722 mmHg 75%
    22:00 +10°C° 0 mm 3 mps 722 mmHg 75%
    23:00 +10°C° 0 mm 3 mps 722 mmHg 75%
    Show more